Simultaneous Nadir Overpasses (SNOs) Predictions

Prediction of SNOs between NOAA-20 and LANDSAT-8 Satellite Orbit:

Table of predicted SNOs for the next 14.0 days since TLE Epoch: 5/25/2024
Index Date (NOAA-20) Time (NOAA-20) Lat,Lon (NOAA-20) SZA (NOAA-20 ) Date (LANDSAT-8) Time (LANDSAT-8) Lat,Lon (LANDSAT-8) SZA (LANDSAT-8 ) Distance(km) Time Diff (sec)
1 05/27/2024 05:55:04 -70.26, -92.65 131.20 05/27/2024 05:55:37 -70.24, -92.61 131.22 2.44 33
2 05/27/2024 06:45:48 70.15, 74.82 48.69 05/27/2024 06:45:04 70.13, 74.89 48.67 3.08 44
3 05/29/2024 21:21:20 70.84,-145.11 49.00 05/29/2024 21:22:29 70.70,-143.69 48.82 54.27 69
4 05/29/2024 22:11:52 -70.22, 23.20 131.65 05/29/2024 22:12:06 -70.21, 23.22 131.67 1.96 14
5 05/29/2024 23:02:36 70.12,-169.33 48.24 05/29/2024 23:01:33 70.10,-169.29 48.22 2.77 63
6 06/01/2024 13:37:58 70.29, -28.44 48.06 06/01/2024 13:39:04 70.29, -28.41 48.05 0.79 66
7 06/01/2024 14:28:40 -70.20, 139.03 132.05 06/01/2024 14:28:34 -70.19, 139.07 132.06 2.02 6
8 06/01/2024 15:19:17 69.72, -52.95 47.46 06/01/2024 15:18:06 69.80, -53.83 47.56 34.95 71
9 06/04/2024 05:54:46 70.28, 87.38 47.72 06/04/2024 05:55:31 70.28, 87.45 47.72 2.97 45
10 06/04/2024 06:45:27 -70.13,-105.08 132.44 06/04/2024 06:45:02 -70.13,-105.14 132.44 2.33 25
11 06/06/2024 22:11:32 70.22,-156.74 47.39 06/06/2024 22:11:57 70.23,-156.73 47.40 1.55 25
12 06/06/2024 23:02:14 -70.13, 10.72 132.71 06/06/2024 23:01:27 -70.13, 10.76 132.71 1.58 47



Historial Predications of SNOs between NOAA-20 and LANDSAT-8
